Lid_Strength_Index
0 2 6 6 9 10 12 10 9 9 8 7 7 8 8 6 8 10 1 0 -0 -0 -1 -1 -2 -2 -2 -2 -2 -2 -2 -2 -2 -2 -2 -2 -2 -2 -2 -3 -3 -3 -2 -2 -2 -2 -2 -2 -2
2 3 6 9 11 13 12 9 9 8 6 6 5 6 7 8 5 4 3 0 -0 -1 -1 -1 -1 -2 -2 -2 -2 -2 -2 -2 -2 -2 -2 -2 -2 -2 -2 -2 -3 -2 -2 -2 -2 -2 -2 -2 -2
3 6 9 12 13 13 12 9 8 7 6 6 7 5 6 7 4 3 1 -0 -1 -1 -1 -1 -1 -2 -2 -2 -2 -2 -2 -2 -2 -2 -2 -2 -2 -2 -2 -3 -2 -2 -2 -2 -2 -2 -2 -2 -2
5 6 9 12 13 12 10 9 8 7 6 5 6 7 5 3 3 1 -0 -0 -0 -0 -1 -1 -1 -2 -2 -2 -2 -2 -2 -2 -2 -2 -2 -2 -2 -2 -2 -2 -2 -2 -2 -2 -2 -2 -2 -2 -2
5 7 11 13 13 11 10 9 8 8 7 6 6 7 6 3 1 0 0 -0 0 -0 -1 -1 -1 -1 -2 -2 -2 -2 -3 -3 -2 -2 -2 -2 -2 -2 -2 -2 -2 -2 -2 -2 -2 -2 -1 -1 -2
8 7 12 14 12 10 10 9 9 8 7 6 6 7 6 2 2 1 0 0 -0 -0 -0 -1 0 -0 -1 -2 -2 -2 -2 -3 -3 -2 -2 -3 -2 -3 -2 -2 -2 -2 -2 -2 -1 -1 -1 -1 -1
8 9 12 12 12 11 10 9 9 9 9 7 5 7 5 4 2 1 0 -0 -0 -0 -0 -1 -1 -0 0 -1 -1 -2 -2 -2 -2 -2 -2 -2 -2 -3 -3 -2 -2 -2 -2 -1 -1 -1 -1 -1 -1
7 8 12 11 12 11 9 9 8 8 9 6 4 7 6 3 1 1 1 0 1 0 0 -0 -1 -1 -1 -1 0 -1 -1 -2 -2 -2 -1 -1 -1 -1 -2 -1 -2 -2 -2 -2 -1 -1 -1 -1 -1
5 11 13 11 11 10 8 9 8 8 7 6 5 6 4 2 2 2 2 2 2 1 0 -0 -1 -1 -1 -1 -0 1 -0 -0 -1 -1 -0 0 -1 -1 -1 -1 -1 -2 -2 -2 -2 -1 -1 -2 -1
8 11 10 8 8 8 9 9 9 8 8 7 6 4 4 3 3 3 3 3 2 2 1 0 -0 -1 -1 -1 -1 -1 -1 -1 -1 -1 -1 -1 -1 -1 -1 0 1 -1 -1 -2 -2 -2 -1 -1 -1
8 11 9 8 7 7 8 9 7 9 9 8 6 5 4 4 4 3 3 3 2 1 1 1 1 -0 -1 -1 -1 -1 -1 -1 -1 -1 -1 -1 -1 -0 -0 -0 -1 -1 1 -1 -1 -1 -1 -1 -1
10 8 8 7 7 8 8 7 8 9 8 7 6 4 4 4 4 4 3 3 2 2 1 0 1 1 0 -0 -0 -1 -1 -1 -1 -1 -1 -0 -0 -0 0 -0 -0 0 0 0 -0 -1 -1 -1 -0
10 9 7 8 8 8 8 8 8 7 6 6 4 4 4 4 4 3 3 3 3 2 1 0 -0 1 0 1 0 -0 -0 -1 -1 -1 -0 0 0 0 -0 -0 -0 -0 0 1 1 0 -1 -0 0
9 9 9 8 8 8 9 9 8 7 7 7 7 5 4 4 4 3 3 3 3 3 2 0 0 -0 0 1 0 0 0 0 0 0 0 1 1 0 0 0 0 0 0 1 1 1 -0 -0 -0
8 10 9 9 8 9 8 11 9 7 7 7 7 7 6 4 3 3 3 2 2 2 2 1 0 -0 -0 1 1 0 0 0 0 -0 -0 0 1 2 1 1 2 2 2 1 1 1 0 0 1
10 11 13 10 8 8 9 14 10 8 8 8 8 8 8 8 7 5 2 2 2 2 2 2 1 -0 -0 -0 -0 0 -0 0 0 0 0 1 1 1 2 2 2 2 2 2 2 2 2 1 1
11 15 14 12 8 9 10 13 9 8 9 9 9 9 8 8 7 6 6 5 3 1 1 1 1 1 0 -0 -0 -0 -0 -0 -0 0 0 1 1 1 1 2 1 2 2 2 2 2 2 3 3
15 15 13 13 11 11 12 13 10 9 10 10 10 9 8 8 7 6 5 5 5 5 3 1 1 1 0 -0 -0 -0 -0 -0 -0 -0 0 0 1 1 1 1 1 2 2 2 2 3 2 3 3
11 13 14 12 10 12 12 13 12 10 11 10 10 10 9 8 6 6 6 5 6 6 6 4 2 1 1 1 1 1 1 1 1 -0 0 0 1 1 1 1 1 2 2 2 2 3 4 4 4
12 14 14 11 10 12 13 13 11 9 10 9 9 8 9 8 8 7 7 7 7 6 6 6 4 2 1 1 1 0 1 0 0 -0 -0 -0 0 0 1 1 1 2 2 2 2 3 4 4 4
12 13 13 13 11 12 14 16 14 12 11 10 9 8 8 9 8 8 8 8 8 8 7 6 5 3 2 1 1 1 1 2 1 1 0 0 0 0 0 0 1 1 2 2 2 2 3 4 4
15 11 11 12 14 17 13 20 16 13 13 12 10 11 10 10 9 9 9 9 9 8 7 7 6 5 2 1 1 2 2 3 1 1 0 0 0 0 0 0 0 1 1 2 1 1 2 3 3
13 10 11 12 14 15 16 17 17 15 14 12 11 11 11 11 10 10 10 9 9 9 8 6 6 5 2 2 1 2 2 1 1 1 1 1 0 0 -0 0 0 0 1 1 1 1 2 2 3
9 11 11 12 14 19 17 17 19 16 14 13 12 11 10 11 11 10 10 9 9 9 9 8 8 8 6 2 2 2 2 2 2 2 2 2 1 1 1 0 0 0 0 1 1 1 1 2 2
10 13 18 20 19 21 17 18 17 14 13 13 12 11 11 10 11 10 9 9 9 9 9 8 8 9 8 8 8 7 5 3 2 2 2 2 2 2 1 1 1 1 1 1 1 1 2 2 2
12 13 19 24 22 21 17 19 17 13 12 11 11 11 11 10 11 10 9 10 10 10 10 10 9 10 10 10 9 9 8 8 7 7 6 4 2 1 0 1 0 0 0 0 1 1 1 2 2
13 15 13 17 19 20 19 18 15 13 13 13 12 12 11 11 11 10 10 11 11 11 11 11 11 11 11 11 10 10 9 9 9 8 7 7 7 6 5 3 0 -0 0 0 0 1 1 1 1
12 11 16 15 23 24 21 19 18 15 14 13 12 12 12 12 11 11 11 12 12 12 12 12 12 12 12 11 11 10 10 9 9 8 8 8 8 7 6 5 4 3 0 0 0 1 0 1 1
13 14 13 13 16 20 23 20 16 14 13 13 12 12 12 11 10 11 12 12 12 12 13 13 13 12 12 12 11 11 11 11 10 10 10 9 9 9 8 7 6 5 3 1 1 1 1 1 1
10 12 13 17 19 17 18 18 14 13 13 12 11 11 11 9 9 11 11 12 12 13 13 13 13 13 13 12 12 12 12 11 11 11 11 10 10 9 9 8 7 6 5 3 1 1 1 1 2